Regional Weather Roundup
Issued by NWS

Home | Current Version | Previous Version | Text Only | Print | Product List | Glossary Off
Versions: 1 2 3 4 5 6 7 8 9 10 11 12 13 14 15 16 17 18 19 20 21 22 23 24 25 26 27 28 29 30 31 32 33 34 35 36 37 38 39 40 41 42 43 44 45 46 47 48 49 50

000
ASUS43 KMPX 261101
RWRMN
WEATHER ROUNDUP FOR MINNESOTA
NATIONAL WEATHER SERVICE TWIN CITIES/CHANHASSEN MN
600 AM CDT THU MAY 26 2016


NOTE: "FAIR" INDICATES FEW OR NO CLOUDS BELOW 12,000 FEET WITH NO
SIGNIFICANT WEATHER AND/OR OBSTRUCTIONS TO VISIBILITY. N/A MEANS
CURRENT SKY AND/OR WEATHER CONDITIONS ARE NOT AVAILABLE.

MNZ060>063-068>070-261200-
   Twin Cities Metro

CITY           SKY/WX    TMP DP  RH WIND       PRES   REMARKS
TWIN CITIES    CLOUDY    62  56  80 S6        29.77R
ST PAUL        MOCLDY    61  56  83 CALM      29.77R
CRYSTAL        MOCLDY    63  54  72 S5        29.75R
BLAINE         MOCLDY    64  59  82 SW8       29.76R
EDEN PRAIRIE   CLOUDY    61  55  81 S5        29.76R
SOUTH ST PAUL  CLOUDY    61  58  92 W6        29.78R
LAKE ELMO      MOCLDY    63  55  77 W7        29.78R
$$
MNZ001>005-007-008-013>017-022>024-027-028-261200-
   Northwest Minnesota

CITY           SKY/WX    TMP DP  RH WIND       PRES   REMARKS
BEMIDJI        CLOUDY    55  55  99 SW3       29.74R FOG
HALLOCK        CLOUDY    57  55  94 SW18      29.67R
ROSEAU         CLOUDY    59  54  82 S8        29.69S
WARROAD        CLOUDY    57  54  88 S6        29.70S
THIEF RVR FALL PTCLDY    55  52  88 SW6       29.73S
CROOKSTON      CLOUDY    55  55 100 SW7       29.72F FOG
FOSSTON        CLEAR     52  50  93 S3        29.73F FOG
DETROIT LAKES  PTCLDY    54  54 100 W3        29.77R
MOORHEAD       CLEAR     54  52  94 CALM      29.74F
PARK RAPIDS    CLOUDY    59  56  89 S5        29.75R
MAHNOMEN       FOG       51  51  99 S5        29.72F VSB 1/2
$$
MNZ006-009>011-018-025>026-261200-
   North Central Minnesota

CITY           SKY/WX    TMP DP  RH WIND       PRES   REMARKS
BAUDETTE       CLOUDY    54  53  97 SE8       29.71F
FLAG ISLAND    CLOUDY    57  54  88 SE15      29.69S
INTL FALLS     CLOUDY    54  52  93 E6        29.75S
WASKISH        CLOUDY    55  55 100 S3        29.73R
BIG FORK       DRIZZLE   55  54  94 S3        29.74F
LONGVILLE      CLOUDY    54  54 100 SE5       29.75R FOG
GRAND RAPIDS   FOG       51  51 100 E7        29.78R VSB 3/4
CRANE LAKE     CLOUDY    52  52 100 SW3       29.80S
ORR            CLOUDY    52  48  87 CALM      29.74F
COOK           CLOUDY    54  52  94 CALM      29.78R
WALKER         CLOUDY    57  55  95 S6        29.74R
$$
MNZ012-019>021-037-261200-
   Northeast Minnesota

CITY           SKY/WX    TMP DP  RH WIND       PRES   REMARKS
DULUTH         FOG       45  44  97 E6        29.80R VSB 1/8
ELY            CLOUDY    54  54 100 SE3       29.78F
HIBBING        FOG       50  50 100 CALM      29.78S VSB 1/4
EVELETH        FOG       52  52 100 E5        29.79R VSB 1/2
DULUTH HARBOR  FOG       43  43 100 E10       29.83S VSB 1/4
TWO HARBORS    FOG       48  45  87 SE3       29.79S VSB 1/4
SILVER BAY     CLOUDY    50  48  93 NE5       29.80S VSB 1/2
GRAND MARAIS     N/A     48  46  93 NE5       29.80F
G MARAIS ARPRT CLOUDY    54  50  87 NE6       29.82F
$$
MNZ029>031-032-039>041-046>048-054>057-064-261200-
   West Central Minnesota

CITY           SKY/WX    TMP DP  RH WIND       PRES   REMARKS
FERGUS FALLS   CLOUDY    54  54 100 CALM      29.75R
WHEATON        CLEAR     55  54  94 CALM      29.80R
MORRIS         CLOUDY    54  50  87 CALM      29.79R
ALEXANDRIA     MOCLDY    57  51  80 SW8       29.80R
ELBOW LAKE     MOCLDY    55  54  97 NW3       29.79R FOG
WADENA         MOCLDY    54  52  94 CALM      29.75R FOG
GLENWOOD       CLOUDY    55  52  88 SW9       29.80R
APPLETON       MOCLDY    55  52  88 SE3       29.80R
ORTONVILLE     PTCLDY    57  52  82 W10       29.79R
MADISON        CLOUDY    55  52  88 W6        29.81R
WILLMAR        FAIR      57  54  88 SW3       29.80S
$$
MNZ033>034-036-042>043-049>051-058-059-261200-
   Central Minnesota

CITY           SKY/WX    TMP DP  RH WIND       PRES   REMARKS
ST CLOUD       CLOUDY    59  59 100 S3        29.78R FOG
SAUK CENTRE    FAIR      58  51  77 SW7       29.78S
PAYNESVILLE    CLOUDY    58  55  90 CALM      29.79S
AITKIN         HAZE      55  50  82 E5        29.76R VSB 3/4
PINE RIVER     CLOUDY    57  57 100 CALM      29.78S FOG
BRAINERD       FOG       58  58 100 SE7       29.76R VSB 1/4
STAPLES        FOG       57  57 100 S5        29.75R VSB<1/4
LONG PRAIRIE   FAIR      55  52  88 S9        29.77R
LITTLE FALLS   MOCLDY    57  55  94 SE3       29.77R FOG
LITCHFIELD     CLOUDY    63  57  82 CALM      29.78F
BUFFALO        MOCLDY    61  57  85 W5        29.79R
MAPLE LAKE     MOCLDY    62  59  89 CALM      29.80R
HUTCHINSON     PTCLDY    61  59  92 CALM      29.79S
$$
MNZ037-044-045-052-053-261200-
   East Central Minnesota

CITY           SKY/WX    TMP DP  RH WIND       PRES   REMARKS
PRINCETON        N/A     63  61  94 CALM      29.79R FOG
MORA           FOG       54  54 100 CALM      29.80R VSB 1/2
CAMBRIDGE      HAZE      63  55  77 CALM      29.77R VSB 1/2
RUSH CITY      CLOUDY    58  58  97 CALM      29.78R FOG
MOOSE LAKE     CLOUDY    45  43  93 CALM      29.79R FOG
HINCKLEY       FOG       55  55 100 CALM      29.79R VSB 1/4
CLOQUET        FOG       45  43  93 E7        29.80R VSB 1/4
MCGREGOR       CLOUDY    50  48  93 CALM      29.79R VSB 1/2
$$
MNZ071>073-080-081-089-090-097-098-261200-
   Southwest Minnesota

CITY           SKY/WX    TMP DP  RH WIND       PRES   REMARKS
MONTEVIDEO     MOCLDY    61  52  72 W3        29.82R
GRANITE FALLS  CLOUDY    59  54  81 SW7       29.82R
CANBY          MOCLDY    58  54  85 NW6       29.83R
MARSHALL       MOCLDY    60  53  77 CALM      29.82R
REDWOOD FALLS  MOCLDY    61  53  75 SW8       29.78S
OLIVIA         MOCLDY    55  54  94 SW6       29.78F
PIPESTONE      PTCLDY    57  52  82 NW6       29.84S
WINDOM         CLOUDY    57  55  94 CALM      29.82S
WORTHINGTON    CLOUDY    59  55  87 SW12      29.84F
JACKSON        CLOUDY    61  54  77 SW12      29.84R
TRACY          CLOUDY    60  55  81 W6        29.82F
SLAYTON        MOCLDY    59  55  85 W8        29.83F
$$
MNZ065>067-074>077-082>085-091>093-261200-
   South Central Minnesota

CITY           SKY/WX    TMP DP  RH WIND       PRES   REMARKS
MANKATO        CLOUDY    59  54  82 S9        29.80R
NEW ULM        CLOUDY    59  55  88 SW7       29.80S
ST JAMES       MOCLDY    55  52  88 S7        29.81S
FAIRMONT       CLOUDY    61  50  67 SW10      29.83R
GLENCOE        MOCLDY    61  59  94 SW3       29.77S
FARIBAULT      CLOUDY    57  57 100 SE5       29.79F
OWATONNA       CLOUDY    61  55  82 SE9       29.79F
WASECA         CLOUDY    59  55  88 S8        29.80F
ALBERT LEA     CLOUDY    57  57 100 S10       29.77F
$$
MNZ078>079-086>088-094>096-261200-
   Southeast Minnesota

CITY           SKY/WX    TMP DP  RH WIND       PRES   REMARKS
ROCHESTER      LGT RAIN  58  57  97 SW8       29.84F
RED WING       CLOUDY    61  59  94 CALM      29.76S
STANTON        CLOUDY    59  56  89 S3        29.77R
DODGE CENTER   CLOUDY    57  57 100 S9        29.82F
WINONA         RAIN      59  57  94 NW9       29.83F
AUSTIN         LGT RAIN  57  55  94 S9        29.85F
PRESTON        RAIN      57  55  92 W6        29.84
$$
ABBREVIATIONS USED IN REMARKS
   TC - TEMPERATURES IN CELSIUS
  WCI - WIND CHILL INDEX
   HX - HEAT INDEX
  VSB - VISIBILITY
$$




USA.gov is the U.S. government's official web portal to all federal, state and local government web resources and services.